Location: Newark
(42.9858°N, 0.6717°E)
Time: 18:14:47
(UTC+00:00)

S-56A Canister/Altair - Pass Details

Date: 22 November 2019
Orbit: 633 x 2499 km, 38.9° (Epoch: 04 December)

Event Time Altitude Azimuth Distance (km) Brightness Sun altitude
Rises 17:48:02 0° 260° (W) 5,265 13.8 -14.4°
Reaches altitude 10° 17:51:59 10° 258° (WSW) 3,980 12.6 -15.1°
Maximum altitude 18:01:40 66° 179° (S) 1,323 8.7 -16.8°
Enters shadow 18:05:59 24° 104° (ESE) 1,997 9.1 -17.6°
Drops below altitude 10° 18:07:59 10° 98° (E) 2,649 - -18.0°
Sets 18:10:09 0° 96° (E) 3,422 - -18.4°
